Tracking 29892 objects as of 21-Nov-2024
HD Live streaming from Space Station
objects crossing your sky now

STARLINK-2373

Track STARLINK-2373 now!
10-day predictions
STARLINK-2373 is classified as:


NORAD ID: 47796
Int'l Code: 2021-018K
Perigee: 553.3 km
Apogee: 555.3 km
Inclination: 53.1 °
Period: 95.6 minutes
Semi major axis: 6925 km
RCS: Unknown
Launch date: March 11, 2021
Source: United States (US)
Launch site: AIR FORCE EASTERN TEST RANGE (AFETR)
Your satellite tracking list
Your tracking list is empty




NASA's NSSDC Master Catalog

Two Line Element Set (TLE):
1 47796U 21018K   24324.94631244  .00033019  00000-0  22242-2 0  9993
2 47796  53.0547 202.8256 0001493  99.1143 261.0015 15.06416570205320
Source of the keplerian elements: AFSPC